Hourly Data Report for June 16, 2021

QUALICUM BEACH AIRPORT
BRITISH COLUMBIA
Current Station Operator: ECCC - MSC

49°20'14.000" N
124°23'38.000" W
58.20 m
1026562
71766
VOQ

Download Data

Hourly Data (June 2021)
Hourly Data Report for June 16, 2021
TIME
LST
Temp Definition
°C
Dew Point Definition
°C
Rel Hum Definition
%
Precip. Amount Definition
mm

Wind Dir Definition
10's deg

Wind Spd Definition
km/h
Visibility Definition
km
Stn Press Definition
kPa
Hmdx Definition


Wind Chill Definition


Weather Definition


00:00 12.1 10.7 91 0.0 19 2   101.91     LegendNANA
01:00 11.3 10.1 92 0.0 26 2   101.96     LegendNANA
02:00 10.6 9.7 94 0.0 27 2   101.98     LegendNANA
03:00 10.4 9.5 94 0.0 27 1   102.01     LegendNANA
04:00 9.4 8.4 93 0.0 25 2   102.06     LegendNANA
05:00 9.5 8.5 94 0.0 24 2   102.10     LegendNANA
06:00 12.0 10.2 89 0.0 14 4   102.10     LegendNANA
07:00 15.6 9.4 66 0.0 9 2   102.15     LegendNANA
08:00 15.8 9.5 66 0.0 3 6   102.16     LegendNANA
09:00 16.2 10.8 70 0.0 4 9   102.16     LegendNANA
10:00 16.0 11.1 73 0.0 9 14   102.15     LegendNANA
11:00 17.3 10.6 65 0.0 10 10   102.11     LegendNANA
12:00 17.9 9.9 59 0.0 8 9   102.07     LegendNANA
13:00 19.5 9.5 52 0.0 9 5   102.04     LegendNANA
14:00 18.9 8.5 51 0.0 8 9   101.96     LegendNANA
15:00 19.5 9.0 51 0.0 9 8   101.92     LegendNANA
16:00 19.6 9.1 51 0.0 10 8   101.86     LegendNANA
17:00 20.2 7.1 42 0.0 10 6   101.80     LegendNANA
18:00 19.8 8.2 47 0.0 8 6   101.75     LegendNANA
19:00 18.8 9.1 53 0.0 6 4   101.70     LegendNANA
20:00 16.9 10.2 65 0.0   0   101.67     LegendNANA
21:00 13.9 9.9 77 0.0 22 2   101.68     LegendNANA
22:00 12.4 10.0 86 0.0 24 1   101.65     LegendNANA
23:00 11.6 9.5 87 0.0 23 6   101.62     LegendNANA

Notes on Data Quality.

Legend

  • E = Estimated
  • M = Missing
  • NA = Not Available*
  • [empty] = Indicates an unobserved value
Date modified: